EW2131 Weather Reports


Display with metric or nautical units.
time (UTC)temp
F
wind
direction
speed
MPH
gust
MPH
rain 1hr
in
rain 24hr
in
rain mn
in
humidity
%
barometer
mb
20210917164750 62 22 0.0 1.0 0.00 0.00 0.00 28 1032.6
20210917163824 59 24 3.0 6.0 0.00 0.00 0.00 30 1032.8
20210917162650 60 112 2.0 3.0 0.00 0.00 0.00 29 1032.8
20210917161748 58 157 2.0 3.0 0.00 0.00 0.00 32 1032.8
20210917160750 57 78 1.0 3.0 0.00 0.00 0.00 33 1032.9
20210917155847 55 95 0.0 1.0 0.00 0.00 0.00 34 1032.9
20210917154847 53 157 0.0 0.0 0.00 0.00 0.00 36 1033.0
20210917153849 49 135 0.0 1.0 0.00 0.00 0.00 43 1032.9
20210917152850 45 90 1.0 2.0 0.00 0.00 0.00 49 1032.8
20210917151848 42 67 0.0 0.0 0.00 0.00 0.00 59 1032.6
20210917150848 39 360 0.0 0.0 0.00 0.00 0.00 63 1032.3
20210917145850 39 360 0.0 0.0 0.00 0.00 0.00 60 1032.4
20210917145749 39 360 0.0 0.0 0.00 0.00 0.00 60 1032.4
20210917144804 39 360 0.0 0.0 0.00 0.00 0.00 59 1032.4
20210917143649 39 360 0.0 0.0 0.00 0.00 0.00 59 1032.4
20210917142650 40 360 0.0 0.0 0.00 0.00 0.00 56 1032.3
20210917141748 41 360 0.0 0.0 0.00 0.00 0.00 54 1032.4
20210917140748 41 360 0.0 0.0 0.00 0.00 0.00 52 1032.4
20210917135748 43 360 0.0 0.0 0.00 0.00 0.00 49 1032.4
20210917134748 43 127 0.0 2.0 0.00 0.00 0.00 46 1032.5
20210917133750 43 189 2.0 4.0 0.00 0.00 0.00 46 1032.4
20210917132750 44 174 2.0 5.0 0.00 0.00 0.00 43 1032.4
20210917131748 44 180 3.0 4.0 0.00 0.00 0.00 43 1032.4
20210917130847 43 202 3.0 4.0 0.00 0.00 0.00 43 1032.2
20210917125849 43 163 7.0 9.0 0.00 0.00 0.00 43 1032.2
20210917124947 43 202 3.0 5.0 0.00 0.00 0.00 44 1032.1
20210917123950 43 173 1.0 4.0 0.00 0.00 0.00 43 1032.0
20210917122949 43 196 4.0 8.0 0.00 0.00 0.00 44 1031.9
20210917121951 43 202 5.0 7.0 0.00 0.00 0.00 45 1031.9
20210917120949 43 184 3.0 7.0 0.00 0.00 0.00 46 1031.8
20210917115948 43 179 0.0 3.0 0.00 0.00 0.00 45 1031.8
20210917114950 43 165 3.0 4.0 0.00 0.00 0.00 45 1031.8
20210917114047 44 202 0.0 1.0 0.00 0.00 0.00 44 1031.7
20210917113049 44 156 2.0 3.0 0.00 0.00 0.00 44 1031.6
20210917112047 44 157 3.0 6.0 0.00 0.00 0.00 45 1031.5
20210917111049 44 202 1.0 4.0 0.00 0.00 0.00 44 1031.4
20210917110049 44 175 4.0 6.0 0.00 0.00 0.00 44 1031.5
20210917105147 44 202 2.0 3.0 0.00 0.00 0.00 44 1031.3
20210917104148 44 180 2.0 2.0 0.00 0.00 0.00 44 1031.2
20210917103148 45 167 4.0 5.0 0.00 0.00 0.00 43 1031.2
20210917102149 44 180 2.0 3.0 0.00 0.00 0.00 43 1031.0
20210917101148 44 202 2.0 3.0 0.00 0.00 0.00 43 1030.8
20210917100246 45 180 0.0 1.0 0.00 0.00 0.00 43 1030.7
20210917095247 45 175 3.0 3.0 0.00 0.00 0.00 41 1030.7
20210917094249 46 243 1.0 2.0 0.00 0.00 0.00 39 1030.7
20210917093347 46 157 0.0 1.0 0.00 0.00 0.00 39 1030.5
20210917092348 46 202 4.0 4.0 0.00 0.00 0.00 40 1030.4
20210917091350 46 202 0.0 0.0 0.00 0.00 0.00 40 1030.2
20210917090349 47 202 2.0 2.0 0.00 0.00 0.00 39 1030.1
20210917085447 47 202 0.0 0.0 0.00 0.00 0.00 37 1030.1
20210917084451 49 202 0.0 0.0 0.00 0.00 0.00 34 1029.7
20210917083448 50 202 0.0 0.0 0.00 0.00 0.00 33 1029.6
20210917082448 50 180 0.0 1.0 0.00 0.00 0.00 33 1029.3
20210917081450 50 142 2.0 3.0 0.00 0.00 0.00 33 1029.1
20210917080548 50 164 3.0 5.0 0.00 0.00 0.00 33 1028.8
20210917080452 50 171 4.0 6.0 0.00 0.00 0.00 34 1028.8
20210917075547 50 155 6.0 10.0 0.00 0.00 0.00 33 1028.7
20210917074549 50 149 6.0 13.0 0.00 0.00 0.00 32 1028.8
20210917073549 51 157 4.0 5.0 0.00 0.00 0.00 33 1028.8
20210917072548 51 174 2.0 4.0 0.00 0.00 0.00 32 1028.7
20210917071549 51 153 3.0 6.0 0.00 0.00 0.00 32 1028.7
20210917070548 51 202 3.0 4.0 0.00 0.00 0.00 32 1028.6
20210917065547 52 183 2.0 4.0 0.00 0.00 0.00 31 1028.5
20210917064548 52 202 0.0 0.0 0.00 0.00 0.00 31 1028.3
20210917063648 52 180 1.0 2.0 0.00 0.00 0.00 31 1027.9
20210917062649 52 181 2.0 4.0 0.00 0.00 0.00 31 1027.9
20210917061648 52 202 0.0 2.0 0.00 0.00 0.00 31 1027.7
20210917060648 53 202 1.0 3.0 0.00 0.00 0.00 31 1027.8
20210917055734 53 202 2.0 3.0 0.00 0.00 0.00 30 1027.5
20210917054735 53 170 2.0 3.0 0.00 0.00 0.00 31 1027.5
20210917053733 53 202 2.0 3.0 0.00 0.00 0.00 30 1027.4
20210917052735 54 190 3.0 4.0 0.00 0.00 0.00 29 1027.4
20210917051732 54 201 3.0 4.0 0.00 0.00 0.00 29 1027.4
20210917050734 55 209 3.0 4.0 0.00 0.00 0.00 30 1027.3
20210917045736 54 146 4.0 6.0 0.00 0.00 0.00 29 1027.2
20210917044833 55 202 2.0 4.0 0.00 0.00 0.00 30 1027.2
20210917043835 55 180 0.0 0.0 0.00 0.00 0.00 29 1027.2
20210917042833 55 187 4.0 6.0 0.00 0.00 0.00 28 1027.1
20210917041836 56 202 0.0 1.0 0.00 0.00 0.00 28 1027.2
20210917040834 56 180 1.0 3.0 0.00 0.00 0.00 28 1027.1
20210917035834 56 157 1.0 2.0 0.00 0.00 0.00 27 1027.1
20210917034832 56 180 3.0 4.0 0.00 0.00 0.00 28 1027.1
20210917033835 56 202 1.0 2.0 0.00 0.00 0.00 28 1026.9
20210917032836 56 180 0.0 0.0 0.00 0.00 0.00 28 1026.9
20210917031834 57 157 0.0 0.0 0.00 0.00 0.00 26 1026.8
20210917030836 57 165 2.0 4.0 0.00 0.00 0.00 26 1026.7
20210917025834 58 157 3.0 5.0 0.00 0.00 0.00 25 1026.5
20210917024833 58 202 2.0 2.0 0.00 0.00 0.00 24 1026.4
20210917023932 58 157 2.0 2.0 0.00 0.00 0.00 25 1026.3
20210917022934 59 209 3.0 5.0 0.00 0.00 0.00 23 1026.1
20210917022032 59 157 1.0 3.0 0.00 0.00 0.00 24 1025.9
20210917021032 59 157 2.0 2.0 0.00 0.00 0.00 23 1025.6
20210917020033 59 194 2.0 4.0 0.00 0.00 0.00 23 1025.3
20210917015933 59 168 1.0 4.0 0.00 0.00 0.00 24 1025.3
20210917014933 60 202 1.0 1.0 0.00 0.00 0.00 24 1025.1
20210917014032 60 112 0.0 0.0 0.00 0.00 0.00 24 1024.9
20210917013033 62 112 0.0 0.0 0.00 0.00 0.00 21 1024.9
20210917012034 64 112 0.0 1.0 0.00 0.00 0.00 19 1024.7
20210917011033 66 112 0.0 0.0 0.00 0.00 0.00 17 1024.4
20210917010037 67 202 1.0 3.0 0.00 0.00 0.00 17 1024.4
20210917005132 68 189 3.0 7.0 0.00 0.00 0.00 16 1024.3
20210917004133 69 167 8.0 11.0 0.00 0.00 0.00 16 1024.1
20210917002232 69 169 3.0 7.0 0.00 0.00 0.00 14 1024.0
20210917001234 70 173 8.0 13.0 0.00 0.00 0.00 13 1023.7
20210917000234 70 147 6.0 9.0 0.00 0.00 0.00 14 1023.5
20210916235235 70 171 7.0 11.0 0.00 0.00 0.00 13 1023.7
20210916234334 71 202 1.0 4.0 0.00 0.00 0.00 13 1023.4
20210916233333 72 168 3.0 5.0 0.00 0.00 0.00 12 1023.2
20210916232335 72 187 5.0 8.0 0.00 0.00 0.00 12 1023.3
20210916231336 73 181 6.0 9.0 0.00 0.00 0.00 12 1023.1
20210916230332 73 162 8.0 15.0 0.00 0.00 0.00 12 1023.0
20210916225335 74 189 6.0 11.0 0.00 0.00 0.00 13 1022.8
20210916224334 75 180 6.0 11.0 0.00 0.00 0.00 12 1022.8
20210916223433 75 145 3.0 6.0 0.00 0.00 0.00 13 1022.6
20210916223332 75 90 0.0 2.0 0.00 0.00 0.00 12 1022.6
20210916222333 75 159 5.0 7.0 0.00 0.00 0.00 12 1022.6
20210916221333 75 164 4.0 6.0 0.00 0.00 0.00 13 1022.8
20210916220333 75 197 5.0 12.0 0.00 0.00 0.00 13 1022.8
20210916215333 76 215 3.0 5.0 0.00 0.00 0.00 13 1022.6
20210916214431 75 170 7.0 10.0 0.00 0.00 0.00 13 1022.4
20210916213435 76 111 5.0 10.0 0.00 0.00 0.00 14 1022.5
20210916212532 76 163 6.0 10.0 0.00 0.00 0.00 12 1022.4
20210916211532 76 190 4.0 6.0 0.00 0.00 0.00 13 1022.6
20210916210631 78 163 5.0 7.0 0.00 0.00 0.00 13 1022.6
20210916205634 76 212 6.0 13.0 0.00 0.00 0.00 13 1022.6
20210916204633 75 178 9.0 13.0 0.00 0.00 0.00 14 1022.6
20210916203733 75 165 6.0 10.0 0.00 0.00 0.00 14 1022.8
20210916202733 74 189 5.0 8.0 0.00 0.00 0.00 15 1022.6
20210916201732 74 210 7.0 13.0 0.00 0.00 0.00 13 1022.8
20210916200831 75 167 6.0 10.0 0.00 0.00 0.00 13 1023.0
20210916195833 76 157 3.0 5.0 0.00 0.00 0.00 14 1023.0
20210916194834 75 182 6.0 9.0 0.00 0.00 0.00 14 1022.8
20210916193933 74 184 4.0 7.0 0.00 0.00 0.00 13 1022.9
20210916192933 74 154 4.0 6.0 0.00 0.00 0.00 14 1023.3
20210916191933 74 186 4.0 5.0 0.00 0.00 0.00 13 1023.4
20210916190934 73 171 5.0 8.0 0.00 0.00 0.00 13 1023.4
20210916185933 73 202 1.0 4.0 0.00 0.00 0.00 13 1023.8
20210916184934 74 146 7.0 14.0 0.00 0.00 0.00 14 1023.9
20210916183933 74 177 5.0 7.0 0.00 0.00 0.00 13 1023.9
20210916183032 74 198 7.0 14.0 0.00 0.00 0.00 13 1024.1
20210916182032 74 169 5.0 9.0 0.00 0.00 0.00 14 1024.0
20210916181033 74 162 5.0 8.0 0.00 0.00 0.00 14 1024.1
20210916180036 74 140 3.0 5.0 0.00 0.00 0.00 14 1024.3
20210916175032 73 171 3.0 6.0 0.00 0.00 0.00 15 1024.2
20210916174033 73 177 5.0 8.0 0.00 0.00 0.00 14 1024.4
20210916173033 73 146 1.0 4.0 0.00 0.00 0.00 14 1024.5
20210916172034 72 172 5.0 8.0 0.00 0.00 0.00 14 1024.9
20210916171033 72 295 3.0 6.0 0.00 0.00 0.00 15 1024.9
20210916170035 72 157 7.0 11.0 0.00 0.00 0.00 14 1025.1